Weather History for KATW - December, 2012

Change the Weather History Date:

Thursday, December 6, 2012

  Actual Average (KOSH) Record (KOSH)
Temperature  
Mean Temperature 36 °F -  
Max Temperature 39 °F 32 °F - (-1)
Min Temperature 32 °F 17 °F - (-1)
Degree Days  
Heating Degree Days 30    
Moisture  
Dew Point 31 °F    
Average Humidity 85    
Maximum Humidity 100    
Minimum Humidity 75    
Precipitation  
Precipitation 0.00 in - - ()
Sea Level Pressure  
Sea Level Pressure 29.95 in    
Wind  
Wind Speed 12 mph (SSW)    
Max Wind Speed 17 mph    
Max Gust Speed 25 mph    
Visibility 10 miles    
Events      
Averages and records for this station are not official NWS values.
T = Trace of Precipitation, MM = Missing Value Source: NWS Daily Summary

Daily Weather History Graph

Daily Weather History Graph

Search for Another Location

Airport or City:

Trip Planner

Search our weather history database for the weather conditions in past years. The results will help you decide how hot, cold, wet, or windy it might be!

Date:

Astronomy

Dec. 06, 2012 Rise Set
Actual Time 7:15 AM CST 4:15 PM CST
Civil Twilight 6:42 AM CST 4:48 PM CST
Nautical Twilight 6:06 AM CST 5:24 PM CST
Astronomical Twilight 5:30 AM CST 5:59 PM CST
Moon No Moon Rise 11:55 AM CST (12/6)
Length of Visible Light 10h 05m
Length of Day
8h 59m
Waning Gibbous, 49% of the Moon is Illuminated
Dec 6
Waning Gibbous
Dec 13
New
Dec 19
First Quarter
Dec 28
Full
Jan 4
Last Quarter

Hourly Weather History & Observations

Time (CST) Temp. Windchill Dew Point Humidity Pressure Visibility Wind Dir Wind Speed Gust Speed Precip Events Conditions
12:55 AM 32.0 °F 23.6 °F 30.2 °F 93% 30.14 in 10.0 mi South 10.4 mph - N/A   Overcast
1:15 AM 32.0 °F 22.1 °F 30.2 °F 93% 30.14 in 10.0 mi South 13.8 mph - N/A   Overcast
1:55 AM 32.0 °F 23.0 °F 30.2 °F 93% 30.12 in 10.0 mi South 11.5 mph - N/A   Scattered Clouds
2:15 AM 33.8 °F 26.4 °F 30.2 °F 87% 30.14 in 10.0 mi South 9.2 mph - N/A   Scattered Clouds
2:35 AM 33.8 °F 24.3 °F 30.2 °F 87% 30.12 in 10.0 mi South 13.8 mph - N/A   Mostly Cloudy
2:55 AM 33.8 °F 24.3 °F 30.2 °F 87% 30.09 in 10.0 mi South 13.8 mph - N/A   Overcast
3:15 AM 33.8 °F 24.8 °F 30.2 °F 87% 30.09 in 10.0 mi South 12.7 mph - N/A   Overcast
3:35 AM 33.8 °F 24.8 °F 30.2 °F 87% 30.08 in 10.0 mi South 12.7 mph - N/A   Overcast
3:55 AM 33.8 °F 25.3 °F 30.2 °F 87% 30.07 in 10.0 mi South 11.5 mph - N/A   Overcast
5:20 AM 33.8 °F 24.3 °F 28.4 °F 81% 30.04 in 10.0 mi South 13.8 mph - N/A   Overcast
5:45 AM 33.8 °F 25.8 °F 28.4 °F 81% 30.03 in 10.0 mi South 10.4 mph 16.1 mph N/A   Overcast
6:45 AM 35.6 °F 27.1 °F 28.4 °F 75% 30.01 in 10.0 mi SSE 12.7 mph - N/A   Overcast
7:45 AM 33.8 °F 23.9 °F 33.8 °F 100% 29.97 in 10.0 mi SSE 15.0 mph 21.9 mph N/A   Light Drizzle
8:45 AM 33.8 °F 23.2 °F 30.2 °F 87% 29.96 in 10.0 mi SSE 17.3 mph 23.0 mph N/A   Overcast
9:45 AM 35.6 °F 25.9 °F 30.2 °F 81% 29.95 in 10.0 mi South 16.1 mph - N/A   Overcast
10:50 AM 37.4 °F 28.9 °F 30.2 °F 75% 29.93 in 10.0 mi SSW 13.8 mph - N/A   Overcast
11:45 AM 37.4 °F 29.8 °F 32.0 °F 81% 29.90 in 10.0 mi SSW 11.5 mph 23.0 mph N/A   Overcast
12:45 PM 37.4 °F 27.8 °F 32.0 °F 81% 29.84 in 10.0 mi South 17.3 mph 25.3 mph N/A   Overcast
1:45 PM 39.2 °F 32.0 °F 32.0 °F 75% 29.85 in 10.0 mi West 11.5 mph - N/A   Overcast
2:45 PM 39.2 °F 32.0 °F 33.8 °F 81% 29.83 in 10.0 mi SW 11.5 mph - N/A   Overcast
3:45 PM 39.2 °F 33.0 °F 33.8 °F 81% 29.82 in 10.0 mi SSW 9.2 mph - N/A   Overcast
4:45 PM 39.2 °F 32.0 °F 33.8 °F 81% 29.82 in 10.0 mi SSW 11.5 mph - N/A   Overcast
5:45 PM 39.2 °F 32.5 °F 33.8 °F 81% 29.83 in 10.0 mi SSW 10.4 mph - N/A   Overcast
7:45 PM 39.2 °F 35.0 °F 33.8 °F 81% 29.85 in 10.0 mi WSW 5.8 mph - N/A   Overcast
8:45 PM 37.4 °F 32.1 °F 33.8 °F 87% 29.86 in 10.0 mi SW 6.9 mph - N/A   Overcast
9:45 PM 37.4 °F 29.8 °F 33.8 °F 87% 29.87 in 10.0 mi West 11.5 mph - N/A   Overcast
9:55 PM 37.4 °F 30.3 °F 33.8 °F 87% 29.87 in 10.0 mi West 10.4 mph - N/A   Clear
10:15 PM 35.6 °F 27.1 °F 32.0 °F 87% 29.88 in 10.0 mi WNW 12.7 mph - N/A   Clear
10:35 PM 35.6 °F 28.6 °F 32.0 °F 87% 29.88 in 10.0 mi WNW 9.2 mph - N/A   Clear
10:45 PM 35.6 °F 28.6 °F 30.2 °F 81% 29.88 in 10.0 mi WNW 9.2 mph - N/A   Mostly Cloudy
10:55 PM 32.0 °F 24.8 °F 30.2 °F 93% 29.88 in 10.0 mi WNW 8.1 mph - N/A   Clear
11:15 PM 32.0 °F 24.2 °F 30.2 °F 93% 29.88 in 10.0 mi WNW 9.2 mph - N/A   Clear
11:35 PM 32.0 °F 24.2 °F 30.2 °F 93% 29.89 in 10.0 mi West 9.2 mph - N/A   Clear